Location: Unspecified
(0.0000°N, 0.0000°E)
Time: 23:19:16
(UTC+00:00)

Hubble Space Telescope - Visible Passes

Search period start: 27 October 2021 00:00
Search period end: 06 November 2021 00:00
Orbit: 535 x 539 km, 28.5° (Epoch: 27 October)

Date Brightness Start Highest point End Pass type
(mag) Time Alt. Az. Time Alt. Az. Time Alt. Az.
27 Oct 2.8 03:38:08 27° ESE 03:38:08 27° ESE 03:40:06 10° ESE visible
27 Oct 2.6 05:14:09 10° WSW 05:17:08 19° SSW 05:20:08 10° SSE visible
28 Oct 3.4 03:27:53 18° ESE 03:27:53 18° ESE 03:29:03 10° ESE visible
28 Oct 2.9 05:03:50 10° WSW 05:06:06 14° SSW 05:08:23 10° S visible
29 Oct 3.9 03:17:36 12° SE 03:17:36 12° SE 03:17:53 10° SE visible
29 Oct 3.2 04:54:14 10° SW 04:55:05 11° SSW 04:55:57 10° SSW visible
